DW6352 Weather Reports


time (UTC)temp
F
wind
direction
speed
knots
gust
knots
rain 1hr
in
rain 24hr
in
rain mn
in
humidity
%
barometer
mb
20260905144523 66 115 1.7 4.3 0.00 0.00 0.00 93 1016.4
20260905143014 65 102 2.6 6.1 0.00 0.00 0.00 93 1016.5
20260905141508 65 44 0.9 3.5 0.00 0.00 0.00 93 1016.5
20260905140122 65 70 1.7 5.2 0.00 0.00 0.00 93 1016.4
20260905134505 64 68 1.7 4.3 0.00 0.00 0.00 94 1016.2
20260905133012 64 76 2.6 5.2 0.00 0.00 0.00 93 1015.9
20260905131508 64 65 2.6 5.2 0.00 0.00 0.00 94 1015.5
20260905130007 63 60 1.7 5.2 0.00 0.00 0.00 94 1015.0
20260905124521 63 59 3.5 7.8 0.00 0.00 0.00 94 1015.0
20260905123127 63 13 3.5 7.8 0.00 0.00 0.00 94 1014.9
20260905121627 62 24 2.6 5.2 0.00 0.00 0.00 94 1015.0
20260905120006 62 27 1.7 4.3 0.00 0.00 0.00 94 1015.2
20260905114628 62 40 0.9 4.3 0.00 0.00 0.00 93 1015.1
20260905113125 62 34 1.7 5.2 0.00 0.00 0.00 93 1015.0
20260905111516 62 42 0.0 3.5 0.00 0.00 0.00 93 1014.9
20260905110013 62 44 0.9 3.5 0.00 0.00 0.00 93 1014.8
20260905104517 62 13 1.7 3.5 0.00 0.00 0.00 93 1014.7
20260905103010 62 58 2.6 8.7 0.00 0.00 0.00 93 1014.2
20260905101505 62 53 5.2 10.4 0.00 0.00 0.00 93 1014.0
20260905100009 62 43 2.6 9.6 0.00 0.00 0.00 93 1013.7
20260905094516 62 49 2.6 8.7 0.00 0.00 0.00 93 1013.5
20260905093010 62 84 4.3 11.3 0.00 0.00 0.00 93 1013.6
20260905091503 62 71 3.5 9.6 0.00 0.00 0.00 93 1013.9
20260905090005 62 65 3.5 7.8 0.00 0.00 0.00 93 1014.3
20260905084507 62 44 4.3 7.8 0.00 0.00 0.00 93 1014.4
20260905083013 62 44 3.5 8.7 0.00 0.00 0.00 93 1014.4
20260905081508 62 45 3.5 8.7 0.00 0.00 0.00 92 1014.5
20260905080005 62 49 2.6 7.0 0.00 0.00 0.00 92 1014.7
20260905074509 62 67 3.5 7.8 0.00 0.00 0.00 92 1014.6
20260905073015 63 34 3.5 7.0 0.00 0.00 0.00 92 1014.5
20260905071509 62 59 1.7 7.8 0.00 0.00 0.00 92 1014.5
20260905070006 63 57 3.5 7.8 0.00 0.00 0.00 92 1014.4
20260905064630 63 51 2.6 7.8 0.00 0.00 0.00 91 1014.4
20260905063005 63 40 1.7 7.0 0.00 0.00 0.00 91 1014.4
20260905061514 63 355 3.5 7.8 0.00 0.00 0.00 91 1014.2
20260905060012 64 336 3.5 7.8 0.00 0.00 0.00 91 1014.3
20260905054515 64 30 4.3 9.6 0.00 0.00 0.00 90 1014.2
20260905053012 64 57 4.3 9.6 0.00 0.00 0.00 90 1014.3
20260905051520 64 329 4.3 8.7 0.00 0.00 0.00 90 1014.2
20260905050128 64 85 2.6 6.1 0.00 0.00 0.00 90 1014.1
20260905044509 64 29 3.5 7.8 0.00 0.00 0.00 90 1014.0
20260905043014 64 32 2.6 9.6 0.00 0.00 0.00 90 1014.0
20260905041506 64 55 4.3 8.7 0.00 0.00 0.00 90 1014.1
20260905040141 64 40 2.6 8.7 0.00 0.00 0.00 90 1014.2
20260905034510 64 50 4.3 11.3 0.00 0.00 0.00 89 1014.1
20260905033011 64 55 3.5 11.3 0.00 0.00 0.00 89 1014.0
20260905031633 64 67 4.3 10.4 0.00 0.00 0.00 89 1014.1
20260905030008 64 25 4.3 10.4 0.00 0.00 0.00 88 1014.0
20260905024502 64 36 6.1 10.4 0.00 0.00 0.00 88 1013.8
20260905023126 65 71 2.6 8.7 0.00 0.00 0.00 87 1013.6
20260905021514 65 55 2.6 8.7 0.00 0.00 0.00 87 1013.5
20260905020010 66 23 4.3 7.8 0.00 0.00 0.00 86 1013.3
20260905014625 66 52 3.5 9.6 0.00 0.00 0.00 85 1013.3
20260905013015 67 15 3.5 11.3 0.00 0.00 0.00 84 1013.2
20260905011513 68 333 5.2 8.7 0.00 0.00 0.00 83 1013.1
20260905010009 68 49 4.3 9.6 0.00 0.00 0.00 82 1012.8
20260905004513 69 320 4.3 11.3 0.00 0.00 0.00 80 1012.6
20260905003020 70 5 5.2 11.3 0.00 0.00 0.00 78 1012.6
20260905001513 72 24 5.2 10.4 0.00 0.00 0.00 76 1012.4
20260905000007 73 16 6.1 10.4 0.00 0.00 0.00 74 1012.2
20260904234627 75 31 4.3 11.3 0.00 0.00 0.00 72 1012.2
20260904233011 76 46 5.2 10.4 0.00 0.00 0.00 70 1012.1
20260904231503 77 9 7.8 11.3 0.00 0.00 0.00 69 1011.9
20260904230030 78 39 6.1 10.4 0.00 0.00 0.00 68 1011.8
20260904224509 80 11 3.5 10.4 0.00 0.02 0.00 66 1011.7
20260904223127 80 30 3.5 11.3 0.00 0.02 0.00 66 1011.5
20260904221507 80 355 3.5 9.6 0.00 0.02 0.00 65 1011.3
20260904220014 81 44 4.3 8.7 0.00 0.02 0.00 64 1011.1
20260904214631 81 60 4.3 10.4 0.00 0.02 0.00 65 1011.0
20260904213009 81 49 3.5 10.4 0.00 0.02 0.00 63 1011.1
20260904211510 81 12 2.6 8.7 0.00 0.02 0.00 64 1011.1
20260904210005 81 13 4.3 10.4 0.00 0.02 0.00 64 1011.1
20260904204511 81 40 4.3 8.7 0.00 0.02 0.00 64 1011.0
20260904203014 80 26 4.3 10.4 0.00 0.02 0.00 65 1011.1
20260904201506 80 325 3.5 10.4 0.00 0.02 0.00 65 1011.0
20260904200126 80 281 4.3 9.6 0.00 0.02 0.00 66 1011.0
20260904194500 79 26 1.7 10.4 0.00 0.02 0.00 66 1011.0
20260904193006 79 125 1.7 7.8 0.00 0.02 0.00 66 1010.8
20260904191627 79 25 1.7 7.8 0.00 0.02 0.00 69 1010.9
20260904190012 78 34 3.5 8.7 0.00 0.02 0.00 70 1011.0
20260904184509 78 30 2.6 8.7 0.00 0.02 0.00 71 1011.0
20260904183014 77 25 3.5 9.6 0.00 0.02 0.00 71 1011.0
20260904181520 76 19 1.7 5.2 0.00 0.02 0.00 75 1011.0
20260904180021 74 29 3.5 7.8 0.00 0.02 0.00 75 1011.1
20260904174511 73 76 2.6 6.1 0.00 0.02 0.00 78 1011.2
20260904173016 71 330 3.5 8.7 0.00 0.02 0.00 80 1011.4
20260904171513 69 332 4.3 8.7 0.00 0.02 0.00 83 1011.5
20260904170018 69 11 4.3 8.7 0.00 0.02 0.00 84 1011.5
20260904164624 69 46 1.7 8.7 0.00 0.02 0.00 85 1011.4
20260904163128 69 355 3.5 8.7 0.00 0.02 0.00 85 1011.1
20260904161518 68 327 4.3 10.4 0.00 0.02 0.00 85 1011.0
20260904160127 68 20 5.2 9.6 0.00 0.02 0.00 85 1010.9
20260904154510 69 39 4.3 7.8 0.00 0.02 0.00 85 1010.6
20260904153132 69 55 4.3 8.7 0.00 0.02 0.00 85 1010.5
20260904151513 68 16 3.5 8.7 0.00 0.02 0.00 86 1010.2
20260904150016 69 51 5.2 10.4 0.00 0.02 0.00 86 1010.0